Albany, NY

5:25 PM EDT on April 20, 2018 (GMT -0400)
Albany International

Weather History for KALB - November, 2014

Change the Weather History Date:

Thursday, November 6, 2014

  Actual Average Record
Temperature  
Mean Temperature 44 °F 43 °F  
Max Temperature 48 °F 52 °F 73 °F (2015)
Min Temperature 39 °F 34 °F 15 °F (1951)
Degree Days  
Heating Degree Days 21 22  
Month to date heating degree days 116 129  
Since 1 July heating degree days 596 774  
Cooling Degree Days 0 0  
Month to date cooling degree days 0 0  
Year to date cooling degree days 659 598  
Moisture  
Dew Point 39 °F    
Average Humidity 79    
Maximum Humidity 92    
Minimum Humidity 66    
Precipitation  
Precipitation 0.18 in 0.11 in 1.60 in (1907)
Month to date precipitation 0.22 0.68  
Year to date precipitation 32.11 33.81  
Snow  
Snow 0.00 in 0.00 in 3.20 in (1933)
Month to date snowfall 0.0 0.2  
Since 1 July snowfall 0.0 0.5  
Since 1 September snowfall 0.0 0.5  
Snow Depth 0.00 in    
Sea Level Pressure  
Sea Level Pressure 29.85 in    
Wind  
Wind Speed 4 mph (North)    
Max Wind Speed 13 mph    
Max Gust Speed 16 mph    
Visibility 7 miles    
Events Rain    
T = Trace of Precipitation, MM = Missing Value Source: NWS Daily Summary

Daily Weather History Graph

Daily Weather History Graph

Search for Another Location

Airport or City:

Astronomy

Nov. 06, 2014 Rise Set
Actual Time 6:35 AM EST 4:41 PM EST
Civil Twilight 6:05 AM EST 5:11 PM EST
Nautical Twilight 5:32 AM EST 5:44 PM EST
Astronomical Twilight 4:59 AM EST 6:17 PM EST
Moon 4:47 PM EST (11/6) 6:03 AM EST (11/6)
Length of Visible Light 11h 05m
Length of Day
10h 06m
Full, 100% of the Moon is Illuminated
Nov 6
Full
Nov 6
Full
Nov 14
Last Quarter
Nov 22
New
Nov 29
First Quarter

Hourly Weather History & Observations

Time (EST) Temp. Windchill Dew Point Humidity Pressure Visibility Wind Dir Wind Speed Gust Speed Precip Events Conditions
12:51 AM 39.9 °F - 33.1 °F 77% 30.12 in 10.0 mi Calm Calm - N/A   Overcast
1:51 AM 41.0 °F - 33.1 °F 73% 30.11 in 10.0 mi Calm Calm - N/A   Overcast
2:51 AM 39.9 °F - 35.1 °F 83% 30.09 in 10.0 mi Calm Calm - N/A   Overcast
3:51 AM 41.0 °F - 35.1 °F 79% 30.09 in 10.0 mi Calm Calm - N/A   Overcast
4:51 AM 39.9 °F - 36.0 °F 86% 30.07 in 10.0 mi Calm Calm - N/A   Overcast
5:51 AM 41.0 °F - 37.0 °F 86% 30.05 in 10.0 mi Calm Calm - N/A   Overcast
6:51 AM 41.0 °F - 36.0 °F 82% 30.02 in 10.0 mi Calm Calm - N/A   Overcast
7:51 AM 43.0 °F - 37.0 °F 80% 30.02 in 10.0 mi Calm Calm - N/A   Overcast
8:51 AM 44.1 °F 42.5 °F 37.0 °F 76% 30.00 in 10.0 mi NNE 3.5 mph - N/A   Overcast
9:51 AM 45.0 °F 43.5 °F 37.0 °F 74% 29.98 in 10.0 mi NE 3.5 mph - 0.00 in Rain Light Rain
10:51 AM 46.9 °F - 37.0 °F 68% 29.93 in 10.0 mi North 3.5 mph - 0.00 in   Overcast
11:51 AM 48.0 °F - 37.0 °F 66% 29.88 in 10.0 mi North 4.6 mph - 0.00 in   Overcast
12:51 PM 48.0 °F - 37.9 °F 68% 29.85 in 10.0 mi North 3.5 mph - 0.00 in   Overcast
1:51 PM 46.9 °F - 39.0 °F 74% 29.81 in 10.0 mi NNE 4.6 mph - 0.00 in Rain Light Rain
2:51 PM 46.0 °F 43.9 °F 39.9 °F 79% 29.79 in 6.0 mi ENE 4.6 mph - 0.01 in Rain Light Rain
3:51 PM 45.0 °F 43.5 °F 41.0 °F 86% 29.75 in 3.0 mi NNE 3.5 mph - 0.02 in Rain Light Rain
4:03 PM 45.0 °F 43.5 °F 42.1 °F 90% 29.74 in 2.0 mi North 3.5 mph - 0.00 in Rain Light Rain
4:40 PM 44.1 °F 42.5 °F 41.0 °F 89% 29.72 in 2.5 mi NNE 3.5 mph - 0.02 in Rain Light Rain
4:51 PM 44.1 °F 41.5 °F 41.0 °F 89% 29.73 in 2.5 mi North 4.6 mph - 0.02 in Rain Light Rain
4:58 PM 44.1 °F 42.5 °F 41.0 °F 89% 29.72 in 2.5 mi North 3.5 mph - 0.00 in Rain Light Rain
5:51 PM 44.1 °F 39.5 °F 42.1 °F 93% 29.71 in 2.5 mi NNW 8.1 mph - 0.03 in Rain Light Rain
6:06 PM 44.6 °F 39.2 °F 42.8 °F 93% 29.69 in 2.5 mi NNW 10.4 mph - N/A Rain Rain
6:51 PM 44.1 °F 42.5 °F 42.1 °F 93% 29.72 in 2.5 mi North 3.5 mph - 0.08 in Rain Light Rain
7:35 PM 44.1 °F 39.0 °F 41.0 °F 89% 29.67 in 4.0 mi North 9.2 mph - 0.02 in Rain Light Rain
7:51 PM 44.1 °F 39.5 °F 41.0 °F 89% 29.68 in 7.0 mi North 8.1 mph - 0.02 in   Overcast
7:59 PM 44.1 °F 40.1 °F 41.0 °F 89% 29.66 in 6.0 mi North 6.9 mph - N/A   Overcast
8:51 PM 43.0 °F 38.8 °F 41.0 °F 93% 29.66 in 5.0 mi NNE 6.9 mph - 0.00 in   Light Drizzle
9:51 PM 44.1 °F 41.5 °F 41.0 °F 89% 29.65 in 6.0 mi North 4.6 mph - 0.00 in   Overcast
10:51 PM 44.1 °F 40.8 °F 41.0 °F 89% 29.64 in 6.0 mi North 5.8 mph - N/A   Overcast
11:51 PM 43.0 °F 37.2 °F 39.9 °F 89% 29.60 in 7.0 mi NNW 10.4 mph - N/A   Overcast